Flag for U.S.A. Weather past 2 weeks in South Bend, Indiana, U.S.A.

Now
65 °F

Sunny.


Feels Like: 65 °F
Forecast: 52 / 80 °F
Wind: 5 mph from Northwest

Location: Michiana Regional Airport

Current Time: Jul 24, 2014 at 10:12:54 PM

Latest Report: Jul 24, 2014 at 8:54 PM


Visibility: 10 mi

Pressure: 30.09 "Hg

Humidity: 63%

Dew point: 52 °F

Location of South BendLocation

Historic Weather in South Bend — Graph

°F

South Bend temperature yesterday

Maximum temperature yesterday: 78 °F (at 12:54 AM)
Minimum temperature yesterday: 59 °F (at 10:54 PM)
Average temperature yesterday: 68 °F

Past Weeks' High & Low Weather Summary

 TemperatureHumidityPressure
High85 °F (Jul 21, 3:54 PM)93% (Jul 13, 3:56 AM)30.23 "Hg (Jul 13, 3:56 AM)
Low51 °F (Jul 17, 3:54 AM)34% (Jul 17, 12:54 PM)29.78 "Hg (Jul 14, 6:54 PM)
Average69 °F68%30.04 "Hg
* Reported Jul 9 8:54 PM — Jul 24 8:54 PM, South Bend, Weather by CustomWeather, © 2014

Note: Actual official high and low records may vary slightly from our data, if they occured in-between our weather recording intervals... More about our weather records

Advertising

South Bend weather history for previous 24 hours

 ConditionsComfort  
Time TempWeatherWind HumidityBarometerVisibility
8:54 PM
Jul 24
65 °FSunny.5 mph63%30.09 "Hg10 mi
7:54 PM69 °FSunny.8 mph53%30.08 "Hg10 mi
6:54 PM72 °FSunny.13 mph49%30.09 "Hg10 mi
5:54 PM73 °FSunny.10 mph50%30.07 "Hg10 mi
4:54 PM74 °FPassing clouds.12 mph46%30.08 "Hg10 mi
3:54 PM74 °FScattered clouds.7 mph43%30.11 "Hg10 mi
2:54 PM74 °FPartly sunny.5 mph43%30.12 "Hg10 mi
1:54 PM72 °FPartly sunny.9 mph49%30.13 "Hg10 mi
12:54 PM70 °FPartly sunny.6 mph51%30.14 "Hg10 mi
11:54 AM69 °FBroken clouds.8 mph53%30.15 "Hg10 mi
10:54 AM69 °FPassing clouds.8 mph59%30.15 "Hg10 mi
9:54 AM68 °FSunny.8 mph61%30.16 "Hg10 mi
8:54 AM63 °FScattered clouds.7 mph75%30.16 "Hg10 mi
7:54 AM59 °FScattered clouds.7 mph84%30.15 "Hg10 mi
6:54 AM57 °FPassing clouds.6 mph87%30.13 "Hg10 mi
5:54 AM56 °FPassing clouds.7 mph87%30.11 "Hg10 mi
4:54 AM55 °FClear.6 mph87%30.10 "Hg10 mi
3:54 AM57 °FClear.8 mph83%30.10 "Hg10 mi
2:54 AM58 °FClear.6 mph84%30.10 "Hg10 mi
1:54 AM59 °FClear.8 mph84%30.10 "Hg10 mi
12:54 AM60 °FPassing clouds.3 mph83%30.11 "Hg10 mi
11:54 PM
Jul 23
59 °FClear.6 mph84%30.11 "Hg10 mi
10:54 PM59 °FClear.7 mph84%30.10 "Hg10 mi
Weather by CustomWeather, © 2014

See weather overviewHow to use our weather pages